This is the latest recevied weather packets stored in our database for station/object KC0SIQ-13. If no packets are shown the sender has not sent any weather packets the latest 1 day(s).
| Time | Temp. | Humidity | Pressure | Rain* | Wind** | Luminosity | Snow |
|---|---|---|---|---|---|---|---|
| 1777986361 | 0.56° C | 99% | 1012.7 hPa | 0 mm | 0 m/s | 6 W/m² | - |
| 1777986060 | 0.56° C | 99% | 1013 hPa | 0 mm | 0 m/s | 6 W/m² | - |
| 1777985756 | 0.56° C | 99% | 1013 hPa | 1.78 mm | 0 m/s | 8 W/m² | - |
| 1777985453 | 1.11° C | 98% | 1012.5 hPa | 1.78 mm | 0 m/s | 9 W/m² | - |
| 1777985149 | 1.11° C | 98% | 1012.6 hPa | 1.78 mm | 0 m/s | 8 W/m² | - |
| 1777984846 | 1.11° C | 98% | 1013 hPa | 3.05 mm | 0 m/s | 5 W/m² | - |
| 1777984542 | 1.11° C | 98% | 1012.5 hPa | 1.27 mm | 0 m/s | 4 W/m² | - |
| 1777984238 | 1.11° C | 98% | 1012.4 hPa | 1.78 mm | 0 m/s | 3 W/m² | - |
| 1777983935 | 1.11° C | 98% | 1012.5 hPa | 1.78 mm | 0 m/s | 1 W/m² | - |
| 1777983632 | 1.11° C | 98% | 1012.5 hPa | 1.27 mm | 0 m/s | 1 W/m² | - |
| 1777983329 | 1.11° C | 98% | 1012.4 hPa | 3.05 mm | 0 m/s | 1 W/m² | - |
| 1777983026 | 1.11° C | 98% | 1012.5 hPa | 1.78 mm | 0 m/s | 0 W/m² | - |
| 1777982722 | 1.11° C | 98% | 1012.5 hPa | 1.27 mm | 0 m/s | 0 W/m² | - |
| 1777982417 | 1.11° C | 98% | 1012.6 hPa | 3.05 mm | 0 m/s | 0 W/m² | - |
| 1777982112 | 1.11° C | 98% | 1012.4 hPa | 1.78 mm | 0 m/s | 0 W/m² | - |
| 1777981810 | 0.56° C | 98% | 1012.6 hPa | 0 mm | 0 m/s | 0 W/m² | - |
| 1777981507 | 0.56° C | 98% | 1012.4 hPa | 0 mm | 0 m/s | 0 W/m² | - |
| 1777981203 | 0.56° C | 98% | 1012.1 hPa | 0 mm | 0 m/s | 0 W/m² | - |
| 1777980900 | 0.56° C | 98% | 1012.1 hPa | 0 mm | 0 m/s | 0 W/m² | - |
| 1777980596 | 0.56° C | 98% | 1012.3 hPa | 0 mm | 0 m/s | 0 W/m² | - |
| 1777980293 | 0.56° C | 98% | 1012.1 hPa | 0 mm | 0 m/s | 0 W/m² | - |
| 1777979990 | 0.56° C | 98% | 1012.1 hPa | 0 mm | 0 m/s | 0 W/m² | - |
| 1777979683 | 0.56° C | 98% | 1012.3 hPa | 0 mm | 0 m/s | 0 W/m² | - |
| 1777979380 | 0.56° C | 98% | 1012.1 hPa | 0 mm | 0 m/s | 0 W/m² | - |
| 1777979077 | 0.56° C | 97% | 1012 hPa | 0 mm | 0 m/s | 0 W/m² | - |
* Rain latest hour (hover to see other rain measurements)
** Current wind speed in m/s (hover to see current wind gust speed)